Regional Weather Roundup
Issued by NWS Raleigh/Durham, NC

Home | Current Version | Previous Version | Text Only | Print | Product List | Glossary On
Versions: 1 2 3 4 5 6 7 8 9 10 11 12 13 14 15 16 17 18 19 20 21 22 23 24 25 26 27 28 29 30 31 32 33 34 35 36 37 38 39 40 41 42 43 44 45 46 47 48 49 50
000
ASUS42 KRAH 300310
RWRRAH
NORTH CAROLINA WEATHER ROUNDUP
NATIONAL WEATHER SERVICE RALEIGH NC
1000 PM EST THU JAN 29 2015

NOTE: "FAIR" INDICATES FEW OR NO CLOUDS BELOW 12,000 FEET WITH NO
SIGNIFICANT WEATHER AND/OR OBSTRUCTIONS TO VISIBILITY.

NCZ001-053-055-056-065-067-300400-
WESTERN NORTH CAROLINA

CITY           SKY/WX    TMP DP  RH WIND       PRES   REMARKS
ASHEVILLE      PTCLDY    41  27  57 S3        30.04F
JEFFERSON      CLOUDY    45  31  58 W16G24    29.96F
HICKORY        CLOUDY    44  23  43 S7        30.02F
RUTHERFORDTON  NOT AVBL
MOUNT AIRY     CLOUDY    44  26  50 CALM      30.03F
$$

NCZ021-022-025-041-071-084-088-300400-
CENTRAL NORTH CAROLINA

CITY           SKY/WX    TMP DP  RH WIND       PRES   REMARKS
CHARLOTTE      PTCLDY    41  22  46 S6        30.08F
GREENSBORO     CLOUDY    39  26  59 S12       30.02F WCI  32
WINSTON-SALEM  CLOUDY    43  24  47 S9        30.03F
RALEIGH-DURHAM PTCLDY    38  24  57 S5        30.09S WCI  34
FORT BRAGG     MOCLDY    45  29  52 S5        30.10S
FAYETTEVILLE   MOCLDY    44  31  60 SW5       30.11S
$$

NCZ011-015-027-028-043-044-047-080-103-300400-
NORTHEASTERN NORTH CAROLINA

CITY           SKY/WX    TMP DP  RH WIND       PRES   REMARKS
ROANOKE RAPIDS FAIR      32  25  74 S3        30.08F
ROCKY MT-WILSO PTCLDY    35  24  64 CALM      30.10F
GREENVILLE     PTCLDY    43  28  56 SW3       30.12F
WASHINGTON     CLOUDY    43  27  53 SW5       30.11F
ELIZABETH CITY NOT AVBL
MANTEO         CLOUDY    41  30  65 S12       30.12F
CAPE HATTERAS  CLOUDY    48  38  68 SW10      30.14F
$$

NCZ078-087-090-091-093-098-101-300400-
SOUTHEASTERN NORTH CAROLINA

CITY           SKY/WX    TMP DP  RH WIND       PRES   REMARKS
LUMBERTON      MOCLDY    48  35  60 SW7       30.12R
GOLDSBORO      MOCLDY    44  36  72 SW2       30.09S
KINSTON        PTCLDY    44  31  60 SW6       30.12R
KENANSVILLE    CLOUDY    44  32  62 CALM      30.12S
NEW BERN       CLOUDY    47  34  60 S8        30.11F
CHERRY POINT   CLOUDY    47  37  68 SW8       30.12F
BEAUFORT       MOCLDY    51  42  71 SW13      30.13F
JACKSONVILLE   CLOUDY    47  37  68 S8        30.12F
WILMINGTON     MOCLDY    48  38  68 S7        30.13F
$$



USA.gov is the U.S. government's official web portal to all federal, state and local government web resources and services.